This is the latest recevied weather packets stored in our database for station/object N4OOJ-13. If no packets are shown the sender has not sent any weather packets the latest 10 day(s).
| Time | Temp. | Humidity | Pressure | Rain* | Wind** | Luminosity | Snow |
|---|---|---|---|---|---|---|---|
| 1777809619 | 10° C | 99% | 1021.4 hPa | 0 mm | - | - | - |
| 1777809032 | 9.44° C | 99% | 1021.4 hPa | 0 mm | - | - | - |
| 1777808426 | 8.33° C | 99% | 1021.2 hPa | 0 mm | - | - | - |
| 1777807821 | 7.22° C | 99% | 1020.9 hPa | 0 mm | - | - | - |
| 1777807221 | 6.67° C | 99% | 1020.6 hPa | 0 mm | - | - | - |
| 1777806615 | 6.67° C | 99% | 1020.5 hPa | 0 mm | - | - | - |
| 1777806022 | 6.67° C | 99% | 1020.3 hPa | 0 mm | - | - | - |
| 1777805417 | 6.67° C | 99% | 1020.2 hPa | 0.25 mm | - | - | - |
| 1777804817 | 6.67° C | 99% | 1020.1 hPa | 0.25 mm | - | - | - |
| 1777804228 | 6.67° C | 99% | 1019.9 hPa | 0.25 mm | - | - | - |
| 1777803627 | 7.22° C | 99% | 1019.7 hPa | 0.25 mm | - | - | - |
| 1777803027 | 7.22° C | 99% | 1019.7 hPa | 0.25 mm | - | - | - |
| 1777802426 | 6.67° C | 99% | 1019.7 hPa | 0.25 mm | - | - | - |
| 1777801824 | 7.22° C | 99% | 1019.6 hPa | 0 mm | - | - | - |
| 1777801219 | 7.22° C | 99% | 1019.5 hPa | 0 mm | - | - | - |
| 1777800625 | 7.22° C | 99% | 1019.3 hPa | 0 mm | - | - | - |
| 1777800020 | 7.78° C | 99% | 1019.2 hPa | 0 mm | - | - | - |
| 1777799426 | 7.22° C | 99% | 1019.3 hPa | 0 mm | - | - | - |
| 1777798820 | 7.22° C | 99% | 1019.3 hPa | 0 mm | - | - | - |
| 1777798219 | 7.22° C | 99% | 1019.2 hPa | 0 mm | - | - | - |
| 1777797619 | 7.22° C | 99% | 1019.1 hPa | 0 mm | - | - | - |
| 1777797032 | 7.22° C | 99% | 1019 hPa | 0 mm | - | - | - |
| 1777796426 | 7.22° C | 99% | 1019 hPa | 0 mm | - | - | - |
| 1777795826 | 7.78° C | 99% | 1018.9 hPa | 0 mm | - | - | - |
| 1777795225 | 7.22° C | 99% | 1018.8 hPa | 0 mm | - | - | - |
* Rain latest hour (hover to see other rain measurements)
** Current wind speed in m/s (hover to see current wind gust speed)